Regional Weather Roundup
Issued by NWS San Diego, CA

Home | Current Version | Previous Version | Text Only | Print | Product List | Glossary On
Versions: 1 2 3 4 5 6 7 8 9 10 11 12 13 14 15 16 17 18 19 20 21 22 23 24 25 26 27 28 29 30 31 32 33 34 35 36 37 38 39 40 41 42 43 44 45 46 47 48 49 50
000
ASUS46 KSGX 022211
RWRSGX

SAN DIEGO HOURLY WEATHER ROUNDUP
NATIONAL WEATHER SERVICE SAN DIEGO CA
300 PM PDT WED SEP 02 2015

NOTE: "FAIR" INDICATES FEW OR NO CLOUDS BELOW 12,000 FEET WITH NO
SIGNIFICANT WEATHER AND/OR OBSTRUCTIONS TO VISIBILITY.

CAZ042-043-060-061-PZZ750-775-022300-

GREATER SAN DIEGO AREA

CITY           SKY/WX    TMP DP  RH WIND       PRES   REMARKS
LINDBERGH FLD  MOSUNNY   75  58  55 W8        29.95F
POINT LOMA       N/A     75  56  51 W13         N/A
NATIONAL CITY    N/A     76  62  62 SW7       29.94F
CHULA VISTA      N/A     75  63  66 W7        29.88F
IMPERIAL BEACH MOSUNNY   74  58  57 W13       29.94F
BROWN FIELD    SUNNY     74  58  57 W13       29.94F
MIRAMAR MCAS   MOSUNNY   79  57  46 W9        29.94F
MONTGOMERY FLD SUNNY     74  58  57 W12       29.94F

$$

NORTH SAN DIEGO COUNTY

CITY           SKY/WX    TMP DP  RH WIND       PRES   REMARKS
CAMP PENDLETON MOSUNNY   75  57  53 SW9       29.93F
OCEANSIDE AP   SUNNY     75  58  55 W10       29.92F
OCEANSIDE HBR    N/A     71  62  73 SW12      29.96F
VISTA            N/A     74  62  65 W3        29.91F
CARLSBAD       SUNNY     72  59  63 SW10      29.93F
DEL MAR          N/A     75  62  63 SW3       29.97F
LA JOLLA SCRIP   N/A    N/A N/A N/A W6        29.91F
FALLBROOK        N/A     79  59  50 S5        29.89F
ESCONDIDO        N/A     79  62  55 SW3       29.93F
SAN MARCOS       N/A     74  62  65 W12       29.91F
POWAY            N/A     81  60  49 CALM      29.93F

$$

EAST SAN DIEGO COUNTY

CITY           SKY/WX    TMP DP  RH WIND       PRES   REMARKS
RAMONA         SUNNY     80  57  45 W13       29.94F
SANTEE LAKES     N/A     80  61  53 S14       29.91
LA MESA          N/A     75  60  58 SW5       29.86F
JAMUL            N/A     79  62  55 SW3       29.91F
DESCANSO N       N/A     81  52  35 CALM      29.79F
CAMPO            N/A     84  47  27 S14G20    29.93F

$$

ORANGE COUNTY AND THE LOS ANGELES BASIN

CITY           SKY/WX    TMP DP  RH WIND       PRES   REMARKS
JOHN WAYNE AP  MOSUNNY   76  60  57 SW9G16    29.92F
LAGUNA BEACH     N/A     77  63  61 S2        29.89F
LAKE FOREST FR   N/A     81  59  46 CALM      29.81F
SANTA ANA        N/A     83  63  50 SW7       29.86F
HUNTINGTON BCH   N/A     77  64  64 W5        29.95F
LOS ALAMITOS   MOSUNNY   78  62  57 SW14      29.91F
FULLERTON      SUNNY     80  60  50 S10       29.90F
L.A. AP        MOSUNNY   73  60  63 W15       29.93F
L.A. DOWNTOWN  SUNNY     76  59  55 VRB6      29.92F

$$

THE INLAND EMPIRE

CITY           SKY/WX    TMP DP  RH WIND       PRES   REMARKS
CORONA         SUNNY     83  60  45 W16       29.90F
CHINO          MOSUNNY   87  57  35 W13G20    29.91F
ONTARIO        MOSUNNY   86  56  35 W14       29.90F
SAN BERNARDINO PTSUNNY   86  45  23 S6        29.91F
RIVERSIDE AP   MOSUNNY   87  55  33 W8        29.89F
MORENO VALLEY    N/A     88  57  34 W1        29.89F
MARCH ARB      SUNNY     85  55  36 NW8       29.91F
HORSETHIEF CYN   N/A     85  52  31 NW6       29.91F
PERRIS           N/A     85  56  36 W5        29.92F
MENIFEE          N/A     87  42  20 S6        29.95F
HEMET EAST       N/A     84  45  25 W1        29.93F
FRENCH VALLEY  FAIR      82  55  39 SW10      29.93F
TEMECULA         N/A     82  60  46 SW10      29.86F

$$

SAN BERNARDINO AND RIVERSIDE COUNTY MOUNTAINS

CITY           SKY/WX    TMP DP  RH WIND       PRES   REMARKS
BIG BEAR AP    SUNNY     72  32  23 SW9       30.18F
ANGELUS OAKS     N/A     73  44  35 CALM      29.78F
PINE COVE        N/A     74  39  28 SW1       29.85F

$$

SOUTHERN DESERT INCLUDING THE COACHELLA VALLEY

CITY           SKY/WX    TMP DP  RH WIND       PRES   REMARKS
PALM SPRINGS   MOSUNNY  101  45  15 NW10      29.80F HX  97
THOUSAND PALMS   N/A    100  52  19 E3        29.76F HX  97
PALM DESERT      N/A    101  54  20 CALM      31.29S HX  99
THERMAL        MOSUNNY  101  37  11 SE9       29.73F HX  95
BLYTHE         MOSUNNY  101  49  17 S12G21    29.78F HX  98
IMPERIAL AP    PTSUNNY  101  53  20 SE7       29.74F HX  99
EL CENTRO NAS  PTSUNNY  100  46  16 VRB3      29.76F HX  96
YUMA AZ        PTSUNNY  101  48  16 S13       29.77F HX  97
MEXICALI       PTSUNNY  100  57  23 SE12      29.76  HX  99

$$

UPPER DESERT

CITY           SKY/WX    TMP DP  RH WIND       PRES   REMARKS
VICTORVILLE AP SUNNY     90  30  12 S23G29    29.93F
HESPERIA         N/A     84  38  19 W17       29.93F
APPLE VALLEY     N/A     85  33  15 S18G24    29.97F
PALMDALE       SUNNY     86  43  22 W13       29.92F
LANCASTER      SUNNY     88  35  15 W20G28    29.92F
EDWARDS AFB    MOSUNNY   91  26   9 SW9       29.88F
DAGGETT        SUNNY     97  30   9 W12G17    29.85F
29 PALMS N     MOSUNNY   96  34  11 S9G21     29.91F
NEEDLES        MOSUNNY  103  34   9 SW10      29.80F HX  96

$$

REGIONAL REPORTS

CITY           SKY/WX    TMP DP  RH WIND       PRES   REMARKS
SANTA BARBARA  MOSUNNY   76  60  57 SW8       29.92F
SANDBERG       SUNNY     77  37  23 SW23G32   30.06F
LAS VEGAS NV   MOSUNNY  100  41  13 S15G25    29.79F HX  95
PHOENIX AZ     PTSUNNY   99  51  19 SE7       29.83F HX  96
TIJUANA        MOSUNNY   73  55  53 NW12      29.96F
ENSENADA NW      N/A     73  32  22 W8        29.91F

$$

OFFSHORE ISLANDS

CITY           SKY/WX    TMP DP  RH WIND       PRES   REMARKS
CATALINA ARPT  SUNNY     66  56  70 SW9       29.97F
SAN CLEMENTE I MOSUNNY   72  55  56 SW7       29.93F
SAN NICOLAS IS MOSUNNY   72  55  55 NE5       29.94F

$$

MARINE AND OFFSHORE BUOY REPORTS

STATION/POSITION SKY/WX   TEMP    WIND        PRES    SWELL
                          AIR SEA DIR/SP/G            HT/PER/DIR
                          (F)     (DEG/KT/KT) (MB)    (FT/S/D)
TANNER BANKS               68 70  290/  6/  8 1014.0F   5/240/11
S CLEMENTE BASIN           67 72  280/  8/ 10 1013.7F   3/230/11
SO. S. ROSA ISLA           66 67  310/  8/ 10 1012.7F   7/11
W. S. BARBARA CH           65 69  320/ 14/ 16 1012.9F   5/300/11
M. S. BARBARA CH           69 72  260/  6/  8 1014.4F
S. MONICA BASIN            67 71  240/  8/ 10 1013.7F   3/180/14
S PEDRO CHANNEL               73                N/A     2/170/13
DANA POINT                    74                N/A     2/190/13
OCEANSIDE OFFSHR              74                N/A     3/200/11
TORREY PINES OTR              74                N/A     3/210/11
LA JOLLA 1                 70 74  270/  6/  9 1014.2F
MISSION BAY BUOY              74                N/A     2/210/13
SAN DIEGO BAY                 77              1014.9F
POINT LOMA SOUTH              73                N/A     3/210/13

$$




USA.gov is the U.S. government's official web portal to all federal, state and local government web resources and services.